Location: Unspecified
(44.4377°N, 88.0525°W)
Time: 18:57:51
(UTC-05:00)

Cosmos 1674 - Visible Passes

Search period start: 18 April 2014 00:00
Search period end: 28 April 2014 00:00
Orbit: 517 x 546 km, 82.5° (Epoch: 17 April)

Date Brightness Start Highest point End Pass type
(mag) Time Alt. Az. Time Alt. Az. Time Alt. Az.
24 Apr 5.4 05:14:18 10° SE 05:17:31 24° E 05:20:43 10° NE visible
25 Apr 5.4 05:04:15 10° SE 05:07:22 23° E 05:10:29 10° NE visible
26 Apr 5.5 04:54:11 10° SE 04:57:13 21° E 05:00:14 10° NE visible
27 Apr 5.5 04:44:07 10° SE 04:47:02 20° E 04:49:57 10° NE visible
